Mitchell, SD

6:18 AM CDT on September 20, 2017 (GMT -0500)
Mitchell Municipal

Weather History for KMHE - February, 2013

Change the Weather History Date:

Saturday, February 2, 2013

  Actual Average Record
Temperature  
Mean Temperature 28 °F 20 °F  
Max Temperature 39 °F 30 °F 64 °F (1924)
Min Temperature 16 °F 11 °F -39 °F (1905)
Degree Days  
Heating Degree Days 37 45  
Month to date heating degree days 91 90  
Since 1 July heating degree days 4372 4457  
Cooling Degree Days 0 0  
Month to date cooling degree days 0 0  
Year to date cooling degree days 0 0  
Moisture  
Dew Point 18 °F    
Average Humidity 76    
Maximum Humidity 84    
Minimum Humidity 68    
Precipitation  
Precipitation 0.07 in 0.02 in 0.60 in (1919)
Month to date precipitation 0.07 0.03  
Year to date precipitation 0.29 0.25  
Snow  
Snow 0.90 in - 6.00 in (1919)
Month to date snowfall 0.9  
Since 1 July snowfall 14.1  
Snow Depth 1.00 in    
Sea Level Pressure  
Sea Level Pressure 30.13 in    
Wind  
Wind Speed 12 mph (WNW)    
Max Wind Speed 32 mph    
Max Gust Speed 39 mph    
Visibility 8 miles    
Events Rain , Snow    
T = Trace of Precipitation, MM = Missing Value Source: NWS Daily Summary

Daily Weather History Graph

Daily Weather History Graph

Search for Another Location

Airport or City:

Trip Planner

Search our weather history database for the weather conditions in past years. The results will help you decide how hot, cold, wet, or windy it might be!

Date:

Astronomy

Feb. 02, 2013 Rise Set
Actual Time 7:47 AM CST 5:44 PM CST
Civil Twilight 7:17 AM CST 6:15 PM CST
Nautical Twilight 6:42 AM CST 6:49 PM CST
Astronomical Twilight 6:09 AM CST 7:23 PM CST
Moon 12:06 AM CST (2/2) 10:43 AM CST (2/2)
Length of Visible Light 10h 58m
Length of Day
9h 57m
Waning Gibbous, 59% of the Moon is Illuminated
Feb 2
Waning Gibbous
Feb 3
Last Quarter
Feb 10
New
Feb 17
First Quarter
Feb 25
Full

Hourly Weather History & Observations

Time (CST) Temp. Windchill Dew Point Humidity Pressure Visibility Wind Dir Wind Speed Gust Speed Precip Events Conditions
12:11 AM 21.2 °F 10.1 °F 15.8 °F 80% 30.09 in 10.0 mi North 10.4 mph - N/A   Overcast
12:53 AM 19.9 °F 10.1 °F 14.0 °F 78% 30.17 in 9.0 mi North 8.1 mph - 0.00 in Snow Light Snow
1:53 AM 18.0 °F 9.8 °F 14.0 °F 84% 30.18 in 5.0 mi NNW 5.8 mph - 0.00 in Snow Light Snow
2:31 AM 17.6 °F 7.3 °F 14.0 °F 86% 30.13 in 2.5 mi NNW 8.1 mph - 0.00 in Snow Light Snow
2:51 AM 17.6 °F 8.2 °F 14.0 °F 86% 30.13 in 3.0 mi NNW 6.9 mph - 0.00 in Snow Light Snow
2:53 AM 18.0 °F 8.7 °F 12.9 °F 81% 30.20 in 4.0 mi NNW 6.9 mph - 0.00 in Snow Light Snow
3:53 AM 17.1 °F 11.7 °F 12.9 °F 84% 30.20 in 10.0 mi NW 3.5 mph - 0.00 in   Overcast
4:12 AM 17.6 °F 10.7 °F 12.2 °F 79% 30.15 in 10.0 mi NNW 4.6 mph - N/A   Overcast
4:53 AM 17.1 °F 10.0 °F 12.9 °F 84% 30.21 in 10.0 mi NW 4.6 mph - N/A   Overcast
5:53 AM 17.1 °F 11.7 °F 12.9 °F 84% 30.22 in 10.0 mi WNW 3.5 mph - N/A   Overcast
6:53 AM 17.1 °F - 12.9 °F 84% 30.20 in 10.0 mi Calm Calm - N/A   Overcast
7:53 AM 18.0 °F - 12.9 °F 81% 30.21 in 10.0 mi Calm Calm - N/A   Overcast
8:18 AM 17.6 °F 12.3 °F 12.2 °F 79% 30.14 in 1.8 mi SW 3.5 mph - 0.00 in Snow Light Snow
8:27 AM 17.6 °F - 12.2 °F 79% 30.14 in 3.0 mi Calm Calm - 0.00 in Snow Light Snow
8:45 AM 17.6 °F 10.7 °F 12.2 °F 79% 30.14 in 2.5 mi SSW 4.6 mph - 0.00 in Snow Light Snow
8:53 AM 18.0 °F 11.1 °F 12.9 °F 81% 30.21 in 1.2 mi South 4.6 mph - 0.00 in Snow Light Snow
9:02 AM 17.6 °F 10.7 °F 12.2 °F 79% 30.14 in 3.0 mi SSW 4.6 mph - 0.00 in Snow Light Snow
9:11 AM 17.6 °F - 12.2 °F 79% 30.14 in 6.0 mi Calm Calm - 0.00 in   Haze
9:53 AM 19.0 °F 11.1 °F 14.0 °F 81% 30.19 in 6.0 mi South 5.8 mph - 0.00 in   Haze
10:40 AM 19.4 °F 9.5 °F 14.0 °F 80% 30.11 in 9.0 mi South 8.1 mph - N/A   Overcast
10:53 AM 19.0 °F 9.0 °F 14.0 °F 81% 30.17 in 10.0 mi South 8.1 mph - N/A   Overcast
11:53 AM 21.9 °F 13.4 °F 16.0 °F 78% 30.16 in 10.0 mi South 6.9 mph - N/A   Overcast
12:29 PM 24.8 °F 15.3 °F 17.6 °F 74% 30.07 in 10.0 mi SSW 9.2 mph - N/A   Overcast
12:53 PM 26.1 °F 17.6 °F 19.9 °F 78% 30.11 in 10.0 mi SSW 8.1 mph - N/A   Overcast
1:04 PM 26.6 °F 16.8 °F 21.2 °F 80% 30.04 in 10.0 mi SSW 10.4 mph - N/A   Overcast
1:40 PM 28.4 °F 20.4 °F 23.0 °F 80% 30.02 in 2.0 mi SSW 8.1 mph - 0.00 in Snow Light Snow
1:53 PM 28.9 °F 21.1 °F 25.0 °F 85% 30.06 in 1.2 mi SSW 8.1 mph - 0.00 in Snow Light Snow
2:44 PM 33.8 °F 27.7 °F 30.2 °F 87% 29.99 in 3.0 mi West 6.9 mph - 0.00 in Snow Light Snow
2:53 PM 35.1 °F 26.9 °F 30.9 °F 85% 30.04 in 8.0 mi West 11.5 mph - 0.00 in Snow Light Snow
3:40 PM 37.4 °F 25.9 °F 30.2 °F 75% 29.99 in 10.0 mi WNW 25.3 mph 31.1 mph 0.00 in Rain Light Rain
3:49 PM 39.2 °F 28.0 °F 30.2 °F 70% 29.99 in 10.0 mi WNW 26.5 mph 32.2 mph 0.00 in   Overcast
3:53 PM 39.0 °F 28.8 °F 30.0 °F 70% 30.04 in 10.0 mi WNW 21.9 mph 32.2 mph 0.00 in   Overcast
4:53 PM 37.9 °F 28.2 °F 30.9 °F 76% 30.05 in 10.0 mi WNW 18.4 mph - N/A   Mostly Cloudy
5:53 PM 37.9 °F 27.1 °F 30.0 °F 73% 30.06 in 10.0 mi WNW 23.0 mph 29.9 mph N/A   Scattered Clouds
6:53 PM 36.0 °F 23.7 °F 26.1 °F 67% 30.10 in 10.0 mi NW 26.5 mph 33.4 mph N/A   Mostly Cloudy
8:46 PM 30.2 °F 18.1 °F 23.0 °F 75% 30.12 in 10.0 mi NNW 18.4 mph 25.3 mph N/A   Mostly Cloudy
8:53 PM 28.9 °F 16.1 °F 21.9 °F 75% 30.18 in 10.0 mi NNW 19.6 mph - N/A   Scattered Clouds
9:53 PM 26.1 °F 11.6 °F 17.1 °F 69% 30.21 in 10.0 mi NW 21.9 mph 34.5 mph N/A   Clear
10:53 PM 24.1 °F 9.8 °F 17.1 °F 75% 30.23 in 10.0 mi NW 19.6 mph - N/A   Clear
11:53 PM 23.0 °F 7.6 °F 14.0 °F 68% 30.25 in 10.0 mi NW 21.9 mph 31.1 mph N/A   Clear